Location: Czekan�w
(50.3488°N, 18.7344°E)
Time: 04:39:20
(UTC+00:00)

NOSS 2-1 (D) - Pass Details

Date: 17 February 2020
Orbit: 450 x 1753 km, 63.3° (Epoch: 26 March)

Event Time Altitude Azimuth Distance (km) Brightness Sun altitude
Exits shadow 04:16:27 36° 277° (W) 762 3.5 -16.1°
Maximum altitude 04:17:23 46° 321° (NW) 658 3.4 -16.0°
Drops below altitude 10° 04:21:11 10° 36° (NE) 1,828 6.5 -15.4°
Sets 04:23:42 0° 43° (NE) 2,877 7.6 -15.0°
